This is the latest recevied weather packets stored in our database for station/object KD7ECD. If no packets are shown the sender has not sent any weather packets the latest 10 day(s).
| Time | Temp. | Humidity | Pressure | Rain* | Wind** | Luminosity | Snow |
|---|---|---|---|---|---|---|---|
| 1777607428 | 13.33° C | 82% | 1016 hPa | 0 mm | - | 0 W/m² | - |
| 1777606826 | 13.89° C | 80% | 1016.1 hPa | 0 mm | - | 0 W/m² | - |
| 1777606222 | 13.89° C | 79% | 1016.1 hPa | 0 mm | - | 0 W/m² | - |
| 1777605620 | 14.44° C | 77% | 1015.9 hPa | 0 mm | - | 0 W/m² | - |
| 1777605016 | 15° C | 74% | 1016 hPa | 0 mm | - | 0 W/m² | - |
| 1777604414 | 15.56° C | 72% | 1015.8 hPa | 0 mm | - | 1 W/m² | - |
| 1777603811 | 16.11° C | 69% | 1015.5 hPa | 0 mm | - | 6 W/m² | - |
| 1777603209 | 17.22° C | 65% | 1015.3 hPa | 0 mm | - | 13 W/m² | - |
| 1777602606 | 18.33° C | 60% | 1015.4 hPa | 0 mm | - | 21 W/m² | - |
| 1777602003 | 18.89° C | 57% | 1015.3 hPa | 0 mm | - | 26 W/m² | - |
| 1777601399 | 20.56° C | 53% | 1015.1 hPa | 0 mm | - | 59 W/m² | - |
| 1777600799 | 20.56° C | 53% | 1015.2 hPa | 0 mm | - | 59 W/m² | - |
| 1777600196 | 20.56° C | 53% | 1014.9 hPa | 0 mm | - | 59 W/m² | - |
| 1777599595 | 21.67° C | 51% | 1015.1 hPa | 0 mm | - | 131 W/m² | - |
| 1777598994 | 22.22° C | 50% | 1015.1 hPa | 0 mm | - | 144 W/m² | - |
| 1777598392 | 22.78° C | 48% | 1014.8 hPa | 0 mm | - | 180 W/m² | - |
| 1777597791 | 22.78° C | 47% | 1014.9 hPa | 0 mm | - | 223 W/m² | - |
| 1777597187 | 22.78° C | 47% | 1014.7 hPa | 0 mm | - | 262 W/m² | - |
| 1777596586 | 23.33° C | 47% | 1014.8 hPa | 0 mm | - | 196 W/m² | - |
| 1777595986 | 23.33° C | 46% | 1014.8 hPa | 0 mm | - | 237 W/m² | - |
| 1777595382 | 23.33° C | 47% | 1014.8 hPa | 0 mm | - | 253 W/m² | - |
| 1777594781 | 23.89° C | 49% | 1014.9 hPa | 0 mm | - | 265 W/m² | - |
| 1777594179 | 23.33° C | 49% | 1014.9 hPa | 0 mm | - | 324 W/m² | - |
| 1777593577 | 23.33° C | 51% | 1015 hPa | 0 mm | - | 373 W/m² | - |
| 1777592973 | 23.33° C | 52% | 1015.1 hPa | 0 mm | - | 359 W/m² | - |
* Rain latest hour (hover to see other rain measurements)
** Current wind speed in m/s (hover to see current wind gust speed)